DW7691 Weather Reports


Display with metric or nautical units.
time (UTC)temp
F
wind
direction
speed
MPH
gust
MPH
rain 1hr
in
rain 24hr
in
rain mn
in
humidity
%
barometer
mb
20260504231511 54 345 0.0 4.0 0.02 0.03 0.03 71 1006.6
20260504230011 58 292 0.0 12.0 0.00 0.01 0.01 58 1006.6
20260504224510 61 315 0.0 3.0 0.00 0.01 0.01 42 1006.2
20260504223009 61 349 0.0 6.0 0.00 0.01 0.01 42 1005.7
20260504221510 61 345 2.0 9.0 0.01 0.01 0.01 44 1005.4
20260504220009 61 29 1.0 6.0 0.01 0.01 0.01 49 1004.6
20260504214507 60 27 4.0 9.0 0.01 0.01 0.01 52 1004.8
20260504213006 58 42 5.0 8.0 0.01 0.01 0.01 55 1005.5
20260504211505 58 143 0.0 11.0 0.00 0.00 0.00 49 1006.7
20260504210005 61 339 2.0 8.0 0.00 0.00 0.00 44 1006.5
20260504204504 62 8 3.0 10.0 0.00 0.00 0.00 37 1005.9
20260504203003 64 75 6.0 21.0 0.00 0.00 0.00 34 1004.9
20260504201501 67 79 9.0 22.0 0.00 0.00 0.00 28 1004.2
20260504200100 71 342 4.0 7.0 0.00 0.00 0.00 23 1004.4
20260504194610 71 332 2.0 11.0 0.00 0.00 0.00 25 1004.2
20260504193059 73 37 2.0 16.0 0.00 0.00 0.00 23 1004.2
20260504191557 72 314 2.0 12.0 0.00 0.00 0.00 24 1004.2
20260504190127 72 301 1.0 16.0 0.00 0.00 0.00 24 1004.3
20260504184553 72 281 3.0 14.0 0.00 0.00 0.00 24 1004.4
20260504183051 71 248 2.0 9.0 0.00 0.00 0.00 25 1004.7
20260504181550 71 283 3.0 8.0 0.00 0.00 0.00 23 1004.9
20260504180044 70 360 2.0 10.0 0.00 0.00 0.00 26 1005.1
20260504174540 68 246 4.0 10.0 0.00 0.00 0.00 27 1005.6
20260504173036 67 255 2.0 8.0 0.00 0.00 0.00 28 1005.7
20260504171532 66 288 2.0 11.0 0.00 0.00 0.00 30 1005.8
20260504110148 39 309 0.0 0.0 0.00 0.00 0.00 64 1006.5
20260504081517 46 310 0.0 0.0 0.00 0.00 0.00 44 1007.5
20260504060104 53 323 0.0 0.0 0.00 0.00 0.00 41 1008.3
20260504050108 58 346 1.0 5.0 0.00 0.00 0.00 34 1008.3
20260504044550 59 332 2.0 5.0 0.00 0.00 0.00 30 1008.1
20260504043056 61 329 0.0 5.0 0.00 0.00 0.00 27 1008.1
20260504041548 60 259 0.0 1.0 0.00 0.00 0.00 30 1007.8
20260504040048 61 245 0.0 3.0 0.00 0.00 0.00 30 1007.8
20260504034546 61 254 0.0 1.0 0.00 0.00 0.00 29 1007.9
20260504033054 61 183 0.0 1.0 0.00 0.00 0.00 29 1007.8
20260504031556 61 253 0.0 0.0 0.00 0.00 0.00 29 1007.9
20260504030047 63 263 0.0 0.0 0.00 0.00 0.00 27 1007.8
20260504024547 63 242 0.0 1.0 0.00 0.00 0.00 27 1007.6
20260504023044 64 242 0.0 0.0 0.00 0.00 0.00 27 1007.5
20260504021544 65 249 0.0 2.0 0.00 0.00 0.00 26 1007.4
20260504020045 66 316 0.0 2.0 0.00 0.00 0.00 25 1007.2
20260504014554 67 277 0.0 3.0 0.00 0.00 0.00 24 1007.2
20260504013045 67 262 0.0 2.0 0.00 0.00 0.00 24 1007.0
20260504011541 68 259 1.0 6.0 0.00 0.00 0.00 23 1007.1
20260504010038 68 249 2.0 7.0 0.00 0.00 0.00 23 1007.2
20260504004537 69 259 0.0 3.0 0.00 0.00 0.00 22 1007.4
20260504003040 69 242 0.0 7.0 0.00 0.00 0.00 21 1007.5
20260504001544 70 246 0.0 3.0 0.00 0.00 0.00 21 1007.6
20260504000042 69 266 0.0 5.0 0.00 0.00 0.00 19 1007.8
20260503234533 69 243 0.0 13.0 0.00 0.00 0.00 20 1008.1
20260503233032 70 278 3.0 21.0 0.00 0.00 0.00 19 1008.0